Location: Newark
(10.3333°N, 37.7167°E)
Time: 15:19:55
(UTC+00:00)

STARLINK-1095 - Pass Details

Date: 04 February 2020
Orbit: 348 x 351 km, 53.0° (Epoch: 27 February)

Event Time Altitude Azimuth Distance (km) Brightness Sun altitude
Rises 17:11:34 0° 315° (NW) 2,153 7.1 -24.0°
Reaches altitude 10° 17:13:39 10° 307° (NW) 1,311 6.0 -24.5°
Enters shadow 17:14:31 17° 299° (WNW) 983 5.4 -24.7°
